SCP
-0 0 0 0 0 0 0 -0 -0 -0 -0 -0 -0 -0 0 -0 -0 -0 -0 -0 -0 0 -0 -0 0 0 -0 0 0 0 0 -0 0 0 0 0 0 -0 -0 0 0 0 -0 0 -0
-0 -0 0 0 0 0 0 0 -0 -0 -0 -0 -0 -0 0 0 -0 -0 -0 0 -0 0 -0 -0 -0 -0 -0 -0 -0 -0 0 0 -0 0 0 -0 0 -0 -0 -0 -0 -0 -0 -0 -0
-0 -0 -0 -0 0 0 0 0 0 0 -0 -0 -0 -0 0 0 -0 0 0 -0 -0 0 0 0 0 0 0 0 0 0 0 0 -0 -0 -0 -0 0 0 -0 0 -0 -1 -1 -0 -0
-0 -0 -0 -0 -0 0 0 0 0 0 0 0 0 0 -0 -0 0 0 0 0 -0 0 0 0 0 0 0 -0 -0 0 -0 0 -0 0 0 0 0 0 0 -0 -0 -1 -1 -0 -0
-0 -0 -0 -0 -0 -0 -0 0 0 0 0 0 0 -0 -0 0 -0 0 -0 -0 0 0 0 0 0 -0 -0 -0 -0 -0 0 -0 0 0 0 0 0 0 0 -0 -0 -0 -1 -0 -0
-0 -0 -0 -0 -0 -0 -0 -0 0 0 0 0 -0 0 -0 0 0 0 0 0 0 0 0 0 0 0 0 0 -0 -0 0 -0 0 0 0 -0 0 0 0 -0 -0 -0 -0 -0 -0
-0 -0 -0 -0 -0 -0 -0 -0 -0 0 0 0 -0 0 0 0 0 0 0 0 0 0 0 0 0 0 0 0 0 -0 -0 0 0 0 0 -0 0 -0 -0 -0 -0 -0 -0 -0 -0
-0 -0 -0 -0 -0 -0 -0 -0 -0 -0 -0 -0 0 0 0 0 0 0 0 0 0 0 0 0 0 0 -0 0 0 0 0 -0 -0 0 0 -0 0 -0 -0 -0 -0 -0 -0 -0 -0
0 -0 -0 -0 -0 -0 -0 -0 0 -0 0 0 0 0 0 0 0 0 0 0 -0 0 0 0 0 0 0 0 0 0 0 0 0 0 0 -0 0 -0 -0 -0 -0 -0 -0 -0 -0
0 0 -0 -0 -0 -0 -0 0 -0 0 0 0 0 0 0 0 0 0 0 0 0 0 0 0 0 0 0 -0 0 0 -0 0 -0 -0 -0 -0 -0 -0 -0 -0 -0 -0 -0 -0 -0
0 0 0 0 -0 0 0 0 0 0 0 0 0 0 -0 0 0 0 0 0 0 0 -0 0 -0 -0 -0 0 0 -0 -0 0 -0 -0 -0 0 -0 -0 -0 -0 -0 -0 -0 -0 -0
0 0 0 0 0 0 -0 0 0 0 -0 0 0 0 0 0 0 0 0 0 0 0 0 0 -0 -0 0 0 0 0 0 -0 0 -0 -0 0 0 -0 -0 -0 -0 -0 -0 -0 -0
0 0 0 0 0 0 0 0 0 0 0 0 0 0 0 0 0 0 0 0 0 0 0 0 0 -0 0 0 0 0 0 0 -0 0 0 0 0 -0 -0 -0 -0 -0 -0 -0 -0
0 0 0 0 0 0 0 0 0 0 0 0 0 -0 0 0 0 0 0 0 0 0 0 0 0 -0 0 0 0 0 0 0 0 0 0 0 0 0 -0 -0 -0 -0 -0 -0 -0
0 0 0 0 0 0 0 0 0 0 0 -0 0 0 0 0 0 0 0 0 0 0 0 0 0 0 0 0 0 0 0 0 0 0 0 0 0 0 0 0 -0 -0 -0 -0 -0
0 0 0 -0 0 0 0 0 0 0 0 0 -0 0 0 0 0 0 0 0 0 0 0 0 0 0 -0 0 0 0 0 0 0 0 0 0 0 0 0 -0 -0 -0 -0 -0 -0
0 0 0 0 0 0 0 0 0 0 0 0 0 0 -0 0 0 0 0 0 0 0 0 0 0 0 0 -0 0 0 0 0 0 0 0 0 0 0 -0 -0 -0 -0 -0 -0 -0
0 0 0 0 0 0 0 0 0 0 0 0 0 0 0 0 0 0 0 0 0 0 0 0 0 0 0 0 -0 -0 0 0 0 0 0 0 0 0 -0 -0 -0 -0 -0 -0 -0
0 -0 0 0 0 0 0 0 0 0 0 0 -0 -0 0 0 0 0 0 0 0 0 0 0 0 0 0 0 -0 -0 0 0 0 0 0 0 0 0 0 0 0 -0 -0 -0 -0
-0 0 0 0 0 0 0 0 0 0 0 0 0 0 0 0 0 0 0 0 0 0 0 0 0 0 0 0 0 0 0 0 0 0 0 0 0 0 0 0 0 0 -0 -0 -0
-0 0 0 0 0 0 0 0 0 0 0 0 0 0 0 -0 0 0 -0 0 0 0 0 0 0 0 0 0 0 0 0 0 0 0 0 0 0 0 0 0 -0 -0 -0 -0 -0
0 0 0 0 0 0 0 0 0 0 0 0 0 0 0 0 -0 0 0 0 0 0 0 0 0 0 0 0 0 0 0 0 0 0 0 0 0 0 0 0 0 0 0 0 -0
0 0 0 0 0 0 0 0 0 0 0 0 0 0 0 0 0 0 0 0 0 0 0 0 0 0 0 0 0 0 0 0 0 0 0 0 0 0 0 0 0 0 0 0 0
0 0 0 0 0 0 0 0 0 0 0 0 0 0 0 0 0 0 0 0 0 0 0 0 0 0 0 0 0 0 0 0 0 0 0 0 0 0 0 0 0 -0 0 0 0
0 0 0 0 0 0 0 0 0 0 0 0 0 0 0 0 0 0 0 0 0 0 0 0 0 0 0 0 0 0 0 0 0 0 0 0 0 0 0 0 0 0 0 0 0
0 0 0 0 0 0 0 0 0 0 0 0 0 0 0 0 0 0 0 -0 0 0 0 0 0 0 0 0 0 0 0 0 0 0 0 0 0 0 0 0 0 0 0 0 0
0 0 0 0 0 0 0 0 0 0 0 0 0 0 0 0 0 0 0 0 0 0 0 0 0 0 0 0 0 0 0 0 0 0 0 0 0 0 0 0 0 0 0 0 0
Wind_Speed_500mb
33 33 35 35 34 35 35 36 37 39 39 36 37 36 38 38 40 43 56 49 36 29 35 26 26 14 13 11 10 9 9 7 10 11 11 38 11 29 11 38 20 14 43 61 63
36 35 36 37 36 36 37 37 38 39 39 41 39 36 40 41 44 53 45 40 39 33 31 34 25 18 9 7 9 8 9 13 14 14 17 42 41 45 19 35 9 30 53 66 65
40 39 37 38 40 39 39 38 39 40 42 40 42 40 39 40 46 21 12 24 44 46 38 24 20 10 6 14 19 13 14 12 19 26 58 41 32 15 48 14 38 74 80 77 71
42 44 43 41 40 41 42 40 39 42 43 43 41 42 41 32 13 2 9 7 37 52 44 34 16 11 6 7 15 8 36 19 19 27 41 34 35 20 23 12 61 86 82 81 75
40 44 45 46 45 44 43 43 42 42 43 43 44 42 40 18 46 33 36 19 29 56 52 33 24 16 9 10 18 15 10 40 45 36 46 40 22 17 20 36 60 73 76 76 72
40 40 44 46 48 48 47 47 44 44 45 44 45 45 31 14 17 22 20 16 29 55 50 36 17 19 4 9 3 8 23 29 36 36 30 30 19 23 30 55 62 72 75 76 71
46 43 44 46 47 50 50 49 50 48 46 46 44 44 36 52 35 37 16 19 25 40 42 36 29 6 4 14 11 37 14 17 9 16 12 46 7 12 57 61 58 68 70 76 73
47 47 46 46 49 50 52 50 51 51 49 44 41 34 26 34 33 32 23 20 20 32 29 21 16 11 5 13 10 14 10 18 8 11 26 10 7 24 57 65 58 58 61 72 75
47 47 48 49 48 50 50 50 50 53 49 25 13 13 24 16 18 24 27 21 18 28 29 18 9 11 10 9 10 11 24 6 10 23 9 4 10 36 59 57 54 54 59 64 69
50 52 49 49 50 52 47 47 47 33 15 11 12 10 22 5 10 15 25 24 13 23 22 20 14 7 6 9 13 23 15 18 26 31 13 12 12 37 60 57 57 59 60 66 68
52 52 52 47 49 49 47 43 16 8 29 25 36 45 65 42 35 27 17 30 32 20 13 11 8 14 22 16 13 18 12 30 20 14 11 13 19 40 57 53 51 57 58 62 72
52 52 53 48 47 44 37 12 7 16 34 58 70 71 75 59 30 39 25 20 17 15 8 4 15 21 15 15 16 13 13 16 5 17 11 8 15 35 46 58 66 64 63 73 75
49 53 56 45 45 34 19 15 12 34 12 41 59 67 84 53 40 56 31 19 8 13 11 13 12 16 14 11 16 11 13 12 16 15 12 18 6 18 25 31 48 55 68 64 81
48 48 51 53 28 17 18 16 20 29 6 16 11 13 35 37 17 48 47 30 8 21 12 12 17 16 9 9 14 8 18 16 19 30 15 13 11 17 25 29 25 47 58 71 81
50 48 50 47 45 33 21 15 15 2 9 9 9 9 16 44 20 34 47 41 23 11 15 15 12 12 10 14 15 19 16 17 18 26 12 9 8 12 22 19 40 51 63 72 81
54 48 58 47 45 26 9 22 4 9 15 14 5 5 6 12 13 11 33 42 38 12 6 22 13 12 17 11 17 3 7 15 11 9 10 23 14 9 24 52 52 46 61 72 84
61 48 52 59 43 28 21 19 7 9 9 10 8 10 4 2 10 7 12 16 16 15 11 4 13 7 7 7 7 10 13 5 6 3 11 15 8 18 39 50 51 53 68 75 83
65 54 52 52 41 36 14 7 10 14 17 11 13 18 7 3 6 6 12 18 10 11 9 11 17 16 7 17 15 14 20 13 15 9 11 12 14 18 33 61 71 60 75 71 82
67 59 53 35 26 37 26 6 16 13 8 7 10 9 9 10 10 5 13 20 25 22 17 13 17 8 11 13 21 9 9 18 12 2 7 8 12 16 12 24 43 57 55 70 84
70 63 31 22 18 49 8 12 12 11 9 4 1 3 5 9 14 12 6 11 23 22 15 17 3 13 10 11 12 24 15 4 3 12 11 8 8 11 13 16 23 26 51 72 79
52 30 17 7 30 26 9 15 13 25 25 7 7 10 8 7 10 5 15 23 23 27 28 16 12 11 11 15 18 5 6 7 10 7 14 9 13 16 15 17 35 39 73 75 80
25 9 15 42 2 4 7 13 9 9 25 10 9 11 10 12 13 11 19 16 34 33 26 21 14 22 27 11 6 14 19 18 13 12 2 9 14 10 18 17 36 48 59 75 87
34 17 14 19 3 5 11 8 6 6 15 11 12 11 7 17 10 8 28 43 55 36 31 18 9 10 15 8 3 10 12 12 6 8 17 14 12 4 7 12 39 45 60 76 84
13 7 8 13 4 4 9 12 8 14 8 16 13 12 16 9 13 13 24 25 33 28 65 37 10 24 31 18 11 11 12 16 17 10 12 13 12 8 14 17 19 48 60 77 83
7 7 6 8 5 10 4 8 10 7 10 23 8 22 19 17 12 11 26 15 17 2 8 25 26 17 36 31 13 14 13 13 18 21 21 17 21 20 26 26 40 67 63 66 74
10 11 18 18 21 9 2 5 7 4 7 14 15 22 18 16 13 9 4 5 15 9 6 6 17 18 25 20 29 21 32 23 32 6 9 13 14 16 31 12 18 56 62 65 67
11 11 8 17 9 6 4 9 18 22 20 32 27 10 12 14 15 25 37 40 22 9 2 7 14 12 34 12 13 10 18 21 13 10 10 12 21 13 7 16 37 60 75 79 68
Wind_Direction_500mb
331 331 330 331 332 332 331 330 330 328 325 328 330 325 322 312 299 283 265 255 259 232 239 235 221 234 205 202 212 58 51 152 170 175 158 163 139 164 165 141 145 164 168 163 162
327 327 326 325 327 327 327 327 325 325 322 324 328 324 321 315 304 284 277 263 244 229 219 219 220 220 187 176 181 98 128 222 182 173 171 179 161 165 132 162 123 137 151 156 162
324 323 322 321 322 323 323 324 323 321 320 320 324 325 320 317 313 289 228 235 213 207 210 213 204 197 179 170 188 198 208 168 187 192 173 164 173 152 148 195 172 150 155 161 166
324 323 321 319 317 317 318 319 320 317 318 317 319 323 319 311 291 319 332 280 209 198 202 211 206 167 173 208 228 165 233 193 176 154 148 156 152 124 156 228 166 154 158 163 170
325 323 321 319 316 313 311 313 316 314 313 314 314 314 318 287 267 302 269 275 203 194 197 189 167 166 179 201 240 198 187 192 160 154 143 148 132 144 198 158 158 160 163 171 178
325 324 320 317 316 313 310 309 311 310 309 310 309 305 304 263 287 311 240 233 201 196 194 191 198 205 227 245 222 209 158 134 152 153 146 129 131 137 158 156 154 166 171 178 184
323 323 321 317 314 312 310 309 311 307 306 307 301 295 281 270 285 275 237 199 211 212 203 200 200 235 8 324 282 140 94 80 97 159 124 116 70 154 155 160 158 169 177 185 189
321 320 317 317 316 312 310 312 310 306 303 299 293 282 263 287 262 244 209 208 229 217 218 213 213 242 199 301 58 93 35 134 219 191 174 93 183 158 165 166 168 173 182 189 193
320 316 315 315 316 313 310 315 311 306 303 291 276 270 263 269 258 212 210 227 222 214 212 203 194 203 150 106 32 45 168 192 170 213 140 112 136 175 171 174 177 183 186 194 201
319 317 317 317 316 313 313 318 315 310 309 300 257 286 260 296 342 319 246 220 211 190 207 223 196 133 68 115 179 183 180 195 172 201 185 205 167 164 177 175 184 192 197 200 200
319 318 317 317 317 315 318 336 346 330 313 267 268 270 276 277 288 273 264 219 216 177 160 191 137 191 196 186 149 141 179 201 208 163 123 191 153 174 180 186 190 194 200 206 209
319 318 315 318 317 315 319 15 49 328 297 287 278 267 263 262 284 259 245 216 168 193 145 79 214 210 187 149 137 140 179 201 326 159 96 170 174 179 184 194 193 193 199 204 211
320 318 315 319 315 310 328 333 295 320 259 286 267 249 245 236 232 252 239 239 165 174 184 176 228 151 185 157 143 170 175 186 182 157 43 115 5 206 215 214 209 206 209 207 209
319 317 316 318 315 311 330 332 314 313 335 278 267 275 208 204 226 235 236 218 215 195 147 223 246 174 182 202 138 200 204 209 152 163 185 174 213 228 212 219 221 216 212 210 211
317 320 313 313 305 307 306 314 293 215 328 261 277 312 185 174 159 219 223 203 192 198 144 229 212 168 177 201 144 229 152 196 178 184 119 206 105 252 161 222 229 218 214 212 210
315 319 309 307 298 313 279 336 228 50 253 308 318 0 96 243 173 148 175 207 204 202 198 210 234 174 195 213 176 207 98 39 50 125 194 199 164 235 182 214 225 220 216 207 208
313 312 301 295 288 288 285 319 71 166 322 277 326 339 137 297 226 162 146 173 169 176 220 350 242 229 170 250 137 98 80 329 338 356 214 194 144 229 210 215 215 207 209 206 206
311 310 298 287 284 265 250 61 199 217 247 307 328 337 353 107 244 202 146 193 260 113 161 168 237 179 184 186 171 179 160 163 189 204 226 130 202 239 211 221 217 216 210 202 204
315 314 304 305 256 213 172 164 203 198 219 293 336 359 324 25 17 144 204 211 212 178 174 161 253 283 208 190 158 190 156 197 142 351 101 215 276 329 297 213 204 205 198 204 205
326 321 312 325 224 173 117 223 219 221 345 10 243 235 308 8 10 33 300 219 222 186 170 213 255 213 234 181 222 197 165 91 353 166 233 249 242 219 224 207 204 190 196 206 206
331 320 320 303 163 177 177 219 231 254 280 230 245 254 234 310 208 253 239 274 234 212 193 154 155 265 143 195 200 141 181 77 128 147 174 224 256 214 227 194 186 195 202 204 202
349 325 341 143 137 213 187 195 220 241 283 263 258 248 235 267 265 277 241 229 247 199 183 199 176 233 230 229 193 183 209 182 205 246 198 168 259 232 223 201 188 199 198 205 212
324 283 201 210 216 263 300 294 277 218 235 218 240 230 356 291 288 221 290 287 298 209 190 169 207 212 320 331 180 181 192 176 132 98 186 158 249 269 200 181 199 185 197 209 214
302 324 307 241 276 52 0 272 254 267 268 263 243 238 264 227 230 280 282 287 303 207 206 158 140 200 226 220 161 186 191 195 159 153 169 209 201 247 214 181 196 214 200 205 211
276 270 342 309 343 327 221 278 284 281 256 268 257 208 205 196 228 256 276 280 297 300 217 166 195 178 227 217 193 234 227 198 189 192 181 212 194 211 206 198 203 208 212 204 209
319 345 336 295 298 291 259 254 279 347 273 283 218 224 202 192 189 217 300 260 247 318 353 253 210 161 228 215 200 222 245 223 225 181 115 131 223 218 210 168 162 196 199 204 205
317 314 302 290 308 325 204 346 298 319 270 236 284 286 219 230 229 203 248 256 246 259 252 167 181 143 229 175 174 223 222 199 171 152 155 147 219 155 168 192 196 203 202 202 202
Wind_Speed_850mb
33 33 35 35 34 35 35 36 37 39 39 36 37 36 38 38 40 43 56 49 36 29 35 26 26 14 13 11 10 9 9 7 10 11 11 38 11 29 11 38 20 14 43 61 63
36 35 36 37 36 36 37 37 38 39 39 41 39 36 40 41 44 53 45 40 39 33 31 34 25 18 9 7 9 8 9 13 14 14 17 42 41 45 19 35 9 30 53 66 65
40 39 37 38 40 39 39 38 39 40 42 40 42 40 39 40 46 21 12 24 44 46 38 24 20 10 6 14 19 13 14 12 19 26 58 41 32 15 48 14 38 74 80 77 71
42 44 43 41 40 41 42 40 39 42 43 43 41 42 41 32 13 2 9 7 37 52 44 34 16 11 6 7 15 8 36 19 19 27 41 34 35 20 23 12 61 86 82 81 75
40 44 45 46 45 44 43 43 42 42 43 43 44 42 40 18 46 33 36 19 29 56 52 33 24 16 9 10 18 15 10 40 45 36 46 40 22 17 20 36 60 73 76 76 72
40 40 44 46 48 48 47 47 44 44 45 44 45 45 31 14 17 22 20 16 29 55 50 36 17 19 4 9 3 8 23 29 36 36 30 30 19 23 30 55 62 72 75 76 71
46 43 44 46 47 50 50 49 50 48 46 46 44 44 36 52 35 37 16 19 25 40 42 36 29 6 4 14 11 37 14 17 9 16 12 46 7 12 57 61 58 68 70 76 73
47 47 46 46 49 50 52 50 51 51 49 44 41 34 26 34 33 32 23 20 20 32 29 21 16 11 5 13 10 14 10 18 8 11 26 10 7 24 57 65 58 58 61 72 75
47 47 48 49 48 50 50 50 50 53 49 25 13 13 24 16 18 24 27 21 18 28 29 18 9 11 10 9 10 11 24 6 10 23 9 4 10 36 59 57 54 54 59 64 69
50 52 49 49 50 52 47 47 47 33 15 11 12 10 22 5 10 15 25 24 13 23 22 20 14 7 6 9 13 23 15 18 26 31 13 12 12 37 60 57 57 59 60 66 68
52 52 52 47 49 49 47 43 16 8 29 25 36 45 65 42 35 27 17 30 32 20 13 11 8 14 22 16 13 18 12 30 20 14 11 13 19 40 57 53 51 57 58 62 72
52 52 53 48 47 44 37 12 7 16 34 58 70 71 75 59 30 39 25 20 17 15 8 4 15 21 15 15 16 13 13 16 5 17 11 8 15 35 46 58 66 64 63 73 75
49 53 56 45 45 34 19 15 12 34 12 41 59 67 84 53 40 56 31 19 8 13 11 13 12 16 14 11 16 11 13 12 16 15 12 18 6 18 25 31 48 55 68 64 81
48 48 51 53 28 17 18 16 20 29 6 16 11 13 35 37 17 48 47 30 8 21 12 12 17 16 9 9 14 8 18 16 19 30 15 13 11 17 25 29 25 47 58 71 81
50 48 50 47 45 33 21 15 15 2 9 9 9 9 16 44 20 34 47 41 23 11 15 15 12 12 10 14 15 19 16 17 18 26 12 9 8 12 22 19 40 51 63 72 81
54 48 58 47 45 26 9 22 4 9 15 14 5 5 6 12 13 11 33 42 38 12 6 22 13 12 17 11 17 3 7 15 11 9 10 23 14 9 24 52 52 46 61 72 84
61 48 52 59 43 28 21 19 7 9 9 10 8 10 4 2 10 7 12 16 16 15 11 4 13 7 7 7 7 10 13 5 6 3 11 15 8 18 39 50 51 53 68 75 83
65 54 52 52 41 36 14 7 10 14 17 11 13 18 7 3 6 6 12 18 10 11 9 11 17 16 7 17 15 14 20 13 15 9 11 12 14 18 33 61 71 60 75 71 82
67 59 53 35 26 37 26 6 16 13 8 7 10 9 9 10 10 5 13 20 25 22 17 13 17 8 11 13 21 9 9 18 12 2 7 8 12 16 12 24 43 57 55 70 84
70 63 31 22 18 49 8 12 12 11 9 4 1 3 5 9 14 12 6 11 23 22 15 17 3 13 10 11 12 24 15 4 3 12 11 8 8 11 13 16 23 26 51 72 79
52 30 17 7 30 26 9 15 13 25 25 7 7 10 8 7 10 5 15 23 23 27 28 16 12 11 11 15 18 5 6 7 10 7 14 9 13 16 15 17 35 39 73 75 80
25 9 15 42 2 4 7 13 9 9 25 10 9 11 10 12 13 11 19 16 34 33 26 21 14 22 27 11 6 14 19 18 13 12 2 9 14 10 18 17 36 48 59 75 87
34 17 14 19 3 5 11 8 6 6 15 11 12 11 7 17 10 8 28 43 55 36 31 18 9 10 15 8 3 10 12 12 6 8 17 14 12 4 7 12 39 45 60 76 84
13 7 8 13 4 4 9 12 8 14 8 16 13 12 16 9 13 13 24 25 33 28 65 37 10 24 31 18 11 11 12 16 17 10 12 13 12 8 14 17 19 48 60 77 83
7 7 6 8 5 10 4 8 10 7 10 23 8 22 19 17 12 11 26 15 17 2 8 25 26 17 36 31 13 14 13 13 18 21 21 17 21 20 26 26 40 67 63 66 74
10 11 18 18 21 9 2 5 7 4 7 14 15 22 18 16 13 9 4 5 15 9 6 6 17 18 25 20 29 21 32 23 32 6 9 13 14 16 31 12 18 56 62 65 67
11 11 8 17 9 6 4 9 18 22 20 32 27 10 12 14 15 25 37 40 22 9 2 7 14 12 34 12 13 10 18 21 13 10 10 12 21 13 7 16 37 60 75 79 68
Wind_Direction_850mb
331 331 330 331 332 332 331 330 330 328 325 328 330 325 322 312 299 283 265 255 259 232 239 235 221 234 205 202 212 58 51 152 170 175 158 163 139 164 165 141 145 164 168 163 162
327 327 326 325 327 327 327 327 325 325 322 324 328 324 321 315 304 284 277 263 244 229 219 219 220 220 187 176 181 98 128 222 182 173 171 179 161 165 132 162 123 137 151 156 162
324 323 322 321 322 323 323 324 323 321 320 320 324 325 320 317 313 289 228 235 213 207 210 213 204 197 179 170 188 198 208 168 187 192 173 164 173 152 148 195 172 150 155 161 166
324 323 321 319 317 317 318 319 320 317 318 317 319 323 319 311 291 319 332 280 209 198 202 211 206 167 173 208 228 165 233 193 176 154 148 156 152 124 156 228 166 154 158 163 170
325 323 321 319 316 313 311 313 316 314 313 314 314 314 318 287 267 302 269 275 203 194 197 189 167 166 179 201 240 198 187 192 160 154 143 148 132 144 198 158 158 160 163 171 178
325 324 320 317 316 313 310 309 311 310 309 310 309 305 304 263 287 311 240 233 201 196 194 191 198 205 227 245 222 209 158 134 152 153 146 129 131 137 158 156 154 166 171 178 184
323 323 321 317 314 312 310 309 311 307 306 307 301 295 281 270 285 275 237 199 211 212 203 200 200 235 8 324 282 140 94 80 97 159 124 116 70 154 155 160 158 169 177 185 189
321 320 317 317 316 312 310 312 310 306 303 299 293 282 263 287 262 244 209 208 229 217 218 213 213 242 199 301 58 93 35 134 219 191 174 93 183 158 165 166 168 173 182 189 193
320 316 315 315 316 313 310 315 311 306 303 291 276 270 263 269 258 212 210 227 222 214 212 203 194 203 150 106 32 45 168 192 170 213 140 112 136 175 171 174 177 183 186 194 201
319 317 317 317 316 313 313 318 315 310 309 300 257 286 260 296 342 319 246 220 211 190 207 223 196 133 68 115 179 183 180 195 172 201 185 205 167 164 177 175 184 192 197 200 200
319 318 317 317 317 315 318 336 346 330 313 267 268 270 276 277 288 273 264 219 216 177 160 191 137 191 196 186 149 141 179 201 208 163 123 191 153 174 180 186 190 194 200 206 209
319 318 315 318 317 315 319 15 49 328 297 287 278 267 263 262 284 259 245 216 168 193 145 79 214 210 187 149 137 140 179 201 326 159 96 170 174 179 184 194 193 193 199 204 211
320 318 315 319 315 310 328 333 295 320 259 286 267 249 245 236 232 252 239 239 165 174 184 176 228 151 185 157 143 170 175 186 182 157 43 115 5 206 215 214 209 206 209 207 209
319 317 316 318 315 311 330 332 314 313 335 278 267 275 208 204 226 235 236 218 215 195 147 223 246 174 182 202 138 200 204 209 152 163 185 174 213 228 212 219 221 216 212 210 211
317 320 313 313 305 307 306 314 293 215 328 261 277 312 185 174 159 219 223 203 192 198 144 229 212 168 177 201 144 229 152 196 178 184 119 206 105 252 161 222 229 218 214 212 210
315 319 309 307 298 313 279 336 228 50 253 308 318 0 96 243 173 148 175 207 204 202 198 210 234 174 195 213 176 207 98 39 50 125 194 199 164 235 182 214 225 220 216 207 208
313 312 301 295 288 288 285 319 71 166 322 277 326 339 137 297 226 162 146 173 169 176 220 350 242 229 170 250 137 98 80 329 338 356 214 194 144 229 210 215 215 207 209 206 206
311 310 298 287 284 265 250 61 199 217 247 307 328 337 353 107 244 202 146 193 260 113 161 168 237 179 184 186 171 179 160 163 189 204 226 130 202 239 211 221 217 216 210 202 204
315 314 304 305 256 213 172 164 203 198 219 293 336 359 324 25 17 144 204 211 212 178 174 161 253 283 208 190 158 190 156 197 142 351 101 215 276 329 297 213 204 205 198 204 205
326 321 312 325 224 173 117 223 219 221 345 10 243 235 308 8 10 33 300 219 222 186 170 213 255 213 234 181 222 197 165 91 353 166 233 249 242 219 224 207 204 190 196 206 206
331 320 320 303 163 177 177 219 231 254 280 230 245 254 234 310 208 253 239 274 234 212 193 154 155 265 143 195 200 141 181 77 128 147 174 224 256 214 227 194 186 195 202 204 202
349 325 341 143 137 213 187 195 220 241 283 263 258 248 235 267 265 277 241 229 247 199 183 199 176 233 230 229 193 183 209 182 205 246 198 168 259 232 223 201 188 199 198 205 212
324 283 201 210 216 263 300 294 277 218 235 218 240 230 356 291 288 221 290 287 298 209 190 169 207 212 320 331 180 181 192 176 132 98 186 158 249 269 200 181 199 185 197 209 214
302 324 307 241 276 52 0 272 254 267 268 263 243 238 264 227 230 280 282 287 303 207 206 158 140 200 226 220 161 186 191 195 159 153 169 209 201 247 214 181 196 214 200 205 211
276 270 342 309 343 327 221 278 284 281 256 268 257 208 205 196 228 256 276 280 297 300 217 166 195 178 227 217 193 234 227 198 189 192 181 212 194 211 206 198 203 208 212 204 209
319 345 336 295 298 291 259 254 279 347 273 283 218 224 202 192 189 217 300 260 247 318 353 253 210 161 228 215 200 222 245 223 225 181 115 131 223 218 210 168 162 196 199 204 205
317 314 302 290 308 325 204 346 298 319 270 236 284 286 219 230 229 203 248 256 246 259 252 167 181 143 229 175 174 223 222 199 171 152 155 147 219 155 168 192 196 203 202 202 202